Regional Weather Roundup
Issued by NWS Goodland, KS

Home | Current Version | Previous Version | Graphics & Text | Print | Product List | Glossary On
Versions: 1 2 3 4 5 6 7 8 9 10 11 12 13 14 15 16 17 18 19 20 21 22 23 24 25 26 27 28 29 30 31 32 33 34 35 36 37 38 39 40 41 42 43 44 45 46 47 48 49 50
793
ASUS43 KGLD 021608
RWRGLD

GOODLAND FORECAST AREA HOURLY WEATHER ROUNDUP
NATIONAL WEATHER SERVICE GOODLAND KS
1000 AM MDT MON MAY 02 2016

...OFFICIAL OBSERVATIONS...

CITY           SKY/WX    TMP DP  RH WIND       PRES   REMARKS
GOODLAND KS    SUNNY     51  31  46 NW14      30.20F
HILL CITY KS   SUNNY     57  36  45 N8        30.20F
IMPERIAL NEB   SUNNY     51  36  56 NW8       30.20F
MCCOOK NEB     SUNNY     53  38  56 CALM      30.19F
AKRON CO       SUNNY     44  33  65 W10       30.23S
BURLINGTON CO  SUNNY     48  28  46 W9        30.23F
LIMON CO       SUNNY     36  29  75 W10       30.26F
$$

...UNOFFICIAL OBSERVATIONS...

CITY           SKY/WX    TMP DP  RH WIND       PRES   REMARKS
COLBY KS       SUNNY     54  37  54 W10G16    30.21F
LENORA KS        N/A     54  32  43 MISG        N/A
NORTON KS      SUNNY     54  34  47 NW9       30.18S
SHARON SPRINGS   N/A     51  31  45 NW9         N/A
KIT CARSON CO    N/A     48  32  54 MISG        N/A
YUMA CO          N/A     49  35  58 NW12        N/A
$$




USA.gov is the U.S. government's official web portal to all federal, state and local government web resources and services.